TimeCDT,TemperatureF,Dew PointF,Humidity,Sea Level PressureIn,VisibilityMPH,Wind Direction,Wind SpeedMPH,Gust SpeedMPH,PrecipitationIn,Events,Conditions,WindDirDegrees,DateUTC
12:15 AM,44.4,43.7,97,30.17,10.0,NNW,9.2,-,N/A,,Overcast,330,2012-10-06 05:15:00
12:35 AM,44.1,43.2,97,30.16,10.0,North,5.8,-,N/A,Thunderstorm,Overcast,360,2012-10-06 05:35:00
12:55 AM,43.7,42.8,97,30.17,10.0,North,6.9,-,N/A,,Overcast,360,2012-10-06 05:55:00
1:15 AM,43.5,42.4,96,30.18,10.0,North,5.8,-,N/A,,Mostly Cloudy,360,2012-10-06 06:15:00
1:55 AM,42.4,41.9,98,30.18,10.0,North,3.5,-,N/A,,Clear,350,2012-10-06 06:55:00
2:35 AM,41.9,41.9,100,30.18,10.0,NNW,3.5,-,N/A,,Scattered Clouds,330,2012-10-06 07:35:00
2:55 AM,41.5,41.5,100,30.18,10.0,NNW,5.8,-,N/A,,Scattered Clouds,330,2012-10-06 07:55:00
3:15 AM,41.4,41.4,100,30.19,10.0,NNW,5.8,-,N/A,,Clear,330,2012-10-06 08:15:00
3:35 AM,41.0,41.0,100,30.19,10.0,NNW,4.6,-,0.01,,Clear,330,2012-10-06 08:35:00
3:55 AM,40.8,40.5,99,30.19,10.0,Calm,Calm,-,0.01,,Clear,0,2012-10-06 08:55:00
4:15 AM,40.1,39.9,99,30.19,10.0,Calm,Calm,-,N/A,,Clear,0,2012-10-06 09:15:00
4:35 AM,39.6,39.6,100,30.19,10.0,Calm,Calm,-,N/A,,Clear,0,2012-10-06 09:35:00
4:55 AM,39.2,39.2,100,30.19,10.0,Calm,Calm,-,N/A,,Clear,0,2012-10-06 09:55:00
5:15 AM,38.7,38.7,100,30.20,10.0,Calm,Calm,-,N/A,,Clear,0,2012-10-06 10:15:00
5:35 AM,38.8,38.8,100,30.22,10.0,WNW,4.6,-,N/A,,Clear,300,2012-10-06 10:35:00
5:55 AM,38.7,38.7,100,30.22,10.0,NW,3.5,-,N/A,,Clear,320,2012-10-06 10:55:00
6:15 AM,38.7,38.7,100,30.22,10.0,Calm,Calm,-,N/A,,Clear,0,2012-10-06 11:15:00
6:35 AM,38.3,38.3,100,30.22,10.0,Calm,Calm,-,N/A,,Clear,0,2012-10-06 11:35:00
6:55 AM,38.3,38.3,100,30.22,10.0,Calm,Calm,-,N/A,,Clear,0,2012-10-06 11:55:00
7:15 AM,37.9,37.9,100,30.22,10.0,Calm,Calm,-,N/A,,Clear,0,2012-10-06 12:15:00
7:35 AM,38.5,38.5,100,30.23,10.0,Calm,Calm,-,N/A,,Clear,0,2012-10-06 12:35:00
7:55 AM,39.4,38.8,98,30.23,10.0,Calm,Calm,-,N/A,,Clear,0,2012-10-06 12:55:00
8:15 AM,40.8,39.4,95,30.24,10.0,North,4.6,-,N/A,,Clear,360,2012-10-06 13:15:00
8:35 AM,41.9,39.2,90,30.24,10.0,North,6.9,-,N/A,,Clear,350,2012-10-06 13:35:00
8:55 AM,43.2,39.4,86,30.24,10.0,North,6.9,-,N/A,,Clear,350,2012-10-06 13:55:00
9:15 AM,44.4,39.0,81,30.24,10.0,North,5.8,-,N/A,,Clear,350,2012-10-06 14:15:00
9:35 AM,45.9,38.5,75,30.25,10.0,NNW,6.9,-,N/A,,Clear,330,2012-10-06 14:35:00
9:55 AM,46.8,37.9,71,30.24,10.0,North,6.9,-,N/A,,Clear,10,2012-10-06 14:55:00
10:15 AM,47.5,37.0,67,30.24,10.0,North,3.5,-,N/A,,Clear,350,2012-10-06 15:15:00
10:35 AM,48.4,37.6,66,30.24,10.0,North,4.6,-,N/A,,Clear,10,2012-10-06 15:35:00
10:55 AM,50.5,38.3,63,30.24,10.0,North,6.9,-,N/A,,Clear,350,2012-10-06 15:55:00
11:15 AM,51.3,36.3,57,30.23,10.0,North,6.9,-,N/A,,Clear,360,2012-10-06 16:15:00
11:35 AM,52.7,35.4,52,30.21,10.0,East,4.6,-,N/A,,Clear,90,2012-10-06 16:35:00
11:55 AM,53.4,32.0,44,30.21,10.0,NE,9.2,-,N/A,,Clear,40,2012-10-06 16:55:00
12:15 PM,53.6,32.9,45,30.21,10.0,North,8.1,-,N/A,,Clear,10,2012-10-06 17:15:00
12:35 PM,53.6,33.4,46,30.20,10.0,North,5.8,-,N/A,,Clear,360,2012-10-06 17:35:00
12:55 PM,54.9,33.6,45,30.20,10.0,North,8.1,-,N/A,,Clear,10,2012-10-06 17:55:00
1:15 PM,55.4,32.4,42,30.19,10.0,North,8.1,-,N/A,,Clear,10,2012-10-06 18:15:00
1:35 PM,55.2,30.7,39,30.19,10.0,North,8.1,-,N/A,,Clear,360,2012-10-06 18:35:00
1:55 PM,56.1,30.2,37,30.18,10.0,NNE,6.9,-,N/A,,Clear,20,2012-10-06 18:55:00
2:15 PM,55.9,32.2,41,30.18,10.0,NW,11.5,-,N/A,,Clear,310,2012-10-06 19:15:00
2:35 PM,55.4,32.9,43,30.18,10.0,North,8.1,-,N/A,,Scattered Clouds,350,2012-10-06 19:35:00
2:55 PM,55.0,31.3,40,30.18,10.0,NNW,6.9,-,N/A,,Mostly Cloudy,340,2012-10-06 19:55:00
3:15 PM,54.1,30.2,40,30.18,10.0,NNW,6.9,-,N/A,,Overcast,340,2012-10-06 20:15:00
3:35 PM,53.8,31.3,42,30.17,10.0,NNW,6.9,-,N/A,,Overcast,330,2012-10-06 20:35:00
3:55 PM,53.8,32.5,45,30.17,10.0,NNW,6.9,-,N/A,,Overcast,340,2012-10-06 20:55:00
4:15 PM,53.4,34.2,48,30.17,10.0,NNW,8.1,-,N/A,,Overcast,340,2012-10-06 21:15:00
4:35 PM,52.9,32.4,46,30.16,10.0,NNW,9.2,-,N/A,,Overcast,340,2012-10-06 21:35:00
4:55 PM,52.7,32.7,47,30.15,10.0,North,5.8,-,N/A,,Overcast,350,2012-10-06 21:55:00
5:15 PM,52.3,34.5,51,30.15,10.0,NNW,6.9,-,N/A,,Overcast,340,2012-10-06 22:15:00
5:35 PM,51.8,34.0,51,30.16,10.0,NNW,9.2,-,N/A,,Overcast,340,2012-10-06 22:35:00
5:55 PM,51.3,35.2,54,30.18,10.0,NW,5.8,-,N/A,,Overcast,320,2012-10-06 22:55:00
6:15 PM,50.9,35.4,55,30.18,10.0,NNW,9.2,-,N/A,,Overcast,330,2012-10-06 23:15:00
6:35 PM,50.4,35.1,56,30.18,10.0,NNW,6.9,-,N/A,,Overcast,330,2012-10-06 23:35:00
6:55 PM,50.0,35.1,57,30.18,10.0,North,4.6,-,N/A,,Overcast,350,2012-10-06 23:55:00
7:15 PM,49.5,36.5,61,30.19,10.0,NW,3.5,-,N/A,,Overcast,320,2012-10-07 00:15:00
7:35 PM,49.3,36.0,60,30.19,10.0,Calm,Calm,-,N/A,,Overcast,0,2012-10-07 00:35:00
7:55 PM,48.9,37.4,64,30.20,10.0,Calm,Calm,-,N/A,,Mostly Cloudy,0,2012-10-07 00:55:00
8:15 PM,48.7,37.0,64,30.20,10.0,NNW,3.5,-,N/A,,Overcast,330,2012-10-07 01:15:00
8:35 PM,48.6,36.7,64,30.21,10.0,NW,3.5,-,N/A,,Overcast,310,2012-10-07 01:35:00
8:55 PM,48.4,37.0,65,30.22,10.0,NW,4.6,-,N/A,,Overcast,310,2012-10-07 01:55:00
9:15 PM,48.2,36.9,65,30.22,10.0,NW,4.6,-,N/A,,Overcast,320,2012-10-07 02:15:00
9:35 PM,48.2,36.3,63,30.21,10.0,NNW,6.9,-,N/A,,Overcast,340,2012-10-07 02:35:00
9:55 PM,47.8,36.5,65,30.21,10.0,North,5.8,-,N/A,,Overcast,350,2012-10-07 02:55:00
10:15 PM,47.3,36.5,66,30.20,10.0,North,4.6,-,N/A,,Overcast,350,2012-10-07 03:15:00
10:35 PM,47.5,35.6,63,30.20,10.0,NNW,11.5,-,N/A,,Overcast,340,2012-10-07 03:35:00
11:15 PM,46.9,35.4,64,30.20,10.0,North,6.9,-,N/A,,Overcast,350,2012-10-07 04:15:00
11:35 PM,46.9,35.6,65,30.20,10.0,NNW,5.8,-,N/A,,Overcast,330,2012-10-07 04:35:00
11:55 PM,46.6,35.8,66,30.19,10.0,NNW,5.8,-,N/A,,Overcast,340,2012-10-07 04:55:00